User: anonymous   Login
Location: Harbor Island
(32.3990°N, 80.4435°W)
Time: 23:33:35
(UTC-04:00)
Language:

Cosmos 1455 - Orbit

View from above orbital plane
View from above orbital plane
View from above satellite
View from above satellite

Ground track
Ground track

The orbit data is extracted from the following two-line orbital elements,

1 14032U 83037A   16151.95684290 +.00001442 +00000-0 +72732-4 0  9994
2 14032 082.5168 104.4591 0018337 161.2474 198.9438 15.16210599803207
Epoch (UTC): 30 May 2016 22:57:51
Eccentricity: 0.0018337
inclination: 82.5168°
perigee height: 504 km
apogee height: 530 km
right ascension of ascending node: 104.4591°
argument of perigee: 161.2474°
revolutions per day: 15.16210599
mean anomaly at epoch: 198.9438°
orbit number at epoch: 80320

The dashed part of the orbit path shows where the satellite is in the earth's shadow,  

DLR